Location: Unspecified
(48.7670°N, 0.0000°E)
Time: 13:30:06
(UTC+00:00)

Altair - Pass Details

Date: 26 June 2019
Orbit: 1501 x 1683 km, 47.2° (Epoch: 22 July)

Event Time Altitude Azimuth Distance (km) Brightness Sun altitude
Rises 16:47:21 0° 189° (S) 4,647 10.1 29.6°
Reaches altitude 10° 16:51:13 10° 175° (S) 3,690 9.5 29.0°
Maximum altitude 16:57:47 22° 130° (SE) 2,908 8.7 27.9°
Drops below altitude 10° 17:04:30 10° 84° (E) 3,797 9.1 26.8°
Sets 17:08:32 0° 71° (ENE) 4,817 9.6 26.1°
